Theta_e
343 344 345 345 346 346 347 347 347 345 348 351 355 351 349 349 351 349 348 351 347 346 345 346 350 347 354 355 354 356 355 355 353 351 350 339 343 343 345 345 343 341 342
342 344 345 344 347 347 347 347 348 347 346 349 352 349 349 350 349 347 348 352 351 349 350 350 350 345 348 352 353 355 356 356 354 351 343 337 340 343 342 346 345 345 343
342 344 345 344 346 349 348 348 348 348 348 347 348 351 350 350 350 351 351 352 351 351 351 351 349 349 353 355 354 353 356 357 357 351 348 339 337 341 343 344 344 343 343
342 344 345 344 345 349 349 348 349 349 349 349 348 350 352 350 350 351 353 353 352 352 349 350 350 350 352 354 354 355 356 358 358 353 349 346 342 341 344 346 345 343 341
342 343 344 346 344 348 350 350 350 350 350 350 349 349 350 349 350 351 352 351 354 352 350 352 352 352 354 355 354 355 355 357 358 355 351 345 346 345 343 343 344 342 341
343 342 344 347 345 347 350 351 350 351 350 350 350 350 349 347 349 351 351 351 353 353 353 353 353 353 354 355 355 356 355 355 356 354 353 351 348 347 346 342 342 342 339
344 343 344 346 346 347 349 350 351 352 351 350 350 349 348 349 350 350 351 349 349 351 353 356 354 354 354 356 355 356 355 356 354 351 346 351 348 347 346 345 342 340 340
345 345 345 345 347 347 348 350 350 351 352 350 350 349 348 348 350 348 349 349 351 356 358 357 356 357 357 357 357 355 354 351 349 347 341 346 347 345 346 346 343 337 335
345 346 346 346 346 347 348 350 350 350 350 351 350 350 349 348 352 355 353 350 348 349 351 353 354 355 356 359 358 355 352 345 345 337 344 344 343 348 347 344 342 338 335
345 346 347 347 347 347 347 350 350 350 350 351 351 351 350 349 348 349 354 358 359 358 359 355 353 351 353 356 357 355 353 339 336 336 336 337 345 346 343 341 341 340 336
344 345 347 349 349 348 348 349 351 351 351 352 352 353 353 352 351 351 348 348 353 357 357 354 350 351 360 359 360 357 353 350 343 340 335 338 347 345 340 336 333 330 328
342 343 345 348 351 350 348 349 350 352 352 351 352 352 354 355 356 356 353 351 349 348 348 350 359 363 361 362 362 357 354 350 349 342 338 341 345 341 336 330 322 317 316
339 342 344 348 351 351 350 348 349 352 352 353 353 354 354 353 354 356 357 357 356 355 355 358 358 359 359 362 363 358 355 351 345 337 340 346 343 338 328 317 313 314 316
339 342 344 348 350 352 351 351 349 351 353 354 355 356 356 356 356 356 356 357 358 359 360 362 363 365 366 365 360 358 354 348 344 341 344 343 335 326 316 310 310 315 310
340 345 344 347 349 351 351 351 351 355 355 356 357 357 356 358 358 359 359 359 360 362 363 364 366 367 366 365 362 358 353 346 342 343 337 328 322 316 314 310 309 308 311
344 347 344 346 348 349 350 350 350 352 357 358 359 358 359 359 360 360 360 361 362 363 365 368 369 367 367 366 362 356 348 343 341 331 320 320 318 317 316 312 311 312 312
353 346 345 344 344 347 348 348 349 349 354 357 358 359 359 360 360 360 361 362 363 365 368 370 369 368 366 363 359 350 344 343 339 324 321 320 318 318 317 314 313 313 313
357 349 346 344 345 346 346 347 347 348 349 354 356 357 358 359 359 360 362 363 367 369 370 369 369 365 362 359 350 347 344 335 329 327 324 321 319 319 318 316 315 315 313
346 353 352 348 347 347 347 347 347 348 349 350 353 355 356 358 359 360 361 364 369 370 371 368 364 361 357 352 350 348 339 332 327 322 316 315 318 317 317 315 316 316 315
358 344 357 359 354 353 350 350 351 350 352 351 351 352 353 357 361 360 364 367 370 370 365 362 360 359 354 353 350 345 340 330 320 313 311 310 311 314 315 313 313 313 314
355 357 348 350 356 359 356 354 354 357 351 351 353 354 356 358 360 363 368 370 369 365 361 360 356 355 352 350 349 345 338 331 317 311 306 306 310 312 312 314 315 315 313
350 354 358 360 356 355 362 360 359 356 356 358 361 362 362 364 365 369 370 368 366 359 357 353 350 349 348 348 345 342 339 333 321 309 305 308 311 313 314 315 315 313 312
345 350 354 362 366 366 357 361 360 359 359 364 365 368 369 369 370 370 366 361 359 355 351 349 344 341 341 341 340 339 334 325 315 306 306 310 312 313 313 314 314 313 312
340 347 351 354 359 364 366 359 352 358 364 366 368 370 370 370 369 366 363 359 355 353 348 343 340 341 340 337 336 330 321 314 308 309 310 312 314 314 314 314 314 312 313
336 340 343 346 350 356 363 364 360 364 369 369 370 370 369 366 362 360 358 357 355 354 348 341 341 340 338 339 337 328 319 312 310 311 313 313 314 313 314 314 314 313 312
331 335 339 343 347 354 359 364 366 366 370 369 368 368 365 360 359 358 355 354 355 355 353 349 348 344 346 342 338 329 321 314 312 313 313 313 314 313 313 314 314 314 313
Wind_Speed
18 21 33 33 35 39 38 36 31 32 29 25 20 20 20 16 9 11 7 20 17 14 10 8 8 9 7 8 6 7 8 5 6 6 13 4 5 8 5 8 3 7 11
14 18 29 33 35 38 40 37 33 28 32 30 24 21 21 17 13 11 10 13 19 16 15 13 10 11 11 8 8 7 9 6 2 2 2 3 3 7 17 5 5 13 9
18 16 25 32 33 34 39 40 37 34 32 29 29 21 21 20 17 15 12 15 20 18 16 15 14 13 13 13 14 12 7 9 6 4 0 2 3 4 8 10 6 13 16
18 17 22 28 33 35 40 41 39 36 36 31 29 30 26 24 23 18 16 13 24 22 19 15 16 16 17 18 17 13 12 9 10 5 8 9 5 2 4 4 8 17 18
21 20 22 32 35 35 36 40 42 38 37 35 32 31 31 28 24 20 17 19 20 26 23 19 20 20 20 20 18 13 11 8 10 8 8 8 9 8 6 3 8 19 18
22 21 32 32 33 35 35 36 41 41 39 37 36 33 32 31 27 23 22 17 14 23 26 26 24 23 22 19 18 14 12 8 9 7 9 6 4 4 4 2 4 6 10
21 20 21 25 32 34 35 34 37 37 40 39 39 37 34 32 29 27 23 22 21 20 21 23 26 25 26 23 19 14 10 8 7 6 6 7 8 7 6 3 3 2 4
21 21 22 30 33 36 36 36 36 35 40 41 40 39 36 32 31 30 28 25 23 19 15 17 21 23 23 27 21 14 9 14 14 6 8 9 8 7 7 4 0 1 2
22 24 21 32 33 35 38 39 36 37 40 42 41 40 39 38 36 29 27 31 31 31 29 24 21 18 15 15 18 10 5 12 15 5 9 11 10 8 6 3 2 3 1
23 22 20 31 35 37 41 40 40 41 43 41 39 40 39 38 38 38 34 29 27 27 25 24 24 27 25 19 15 11 13 18 25 13 13 19 9 8 3 5 4 2 4
23 22 20 31 38 36 35 37 36 36 35 37 38 36 36 37 37 38 39 40 37 33 31 31 31 28 23 18 20 19 18 23 26 25 17 14 8 4 5 12 11 8 4
19 20 21 29 32 34 32 35 35 35 38 40 39 38 37 35 36 37 36 36 36 36 34 31 24 22 24 19 17 19 22 22 29 24 7 8 1 8 10 10 10 9 8
8 11 16 19 27 33 33 32 34 36 37 37 37 36 36 37 39 36 33 33 33 31 29 26 26 26 24 23 20 17 16 17 14 13 7 3 10 12 9 9 12 14 17
8 9 15 17 26 31 33 30 31 34 36 36 35 34 37 39 38 35 33 31 29 28 27 24 22 19 18 19 14 10 6 7 6 6 6 10 13 12 11 13 16 17 18
9 15 17 16 21 27 29 30 30 34 37 34 34 37 39 38 35 32 31 30 27 25 24 21 20 17 17 14 9 6 8 13 12 13 16 15 13 13 13 16 16 17 19
12 17 17 17 18 27 30 31 31 33 36 35 36 38 35 34 33 32 30 27 25 23 20 18 16 15 11 7 6 12 16 19 19 21 20 17 16 15 16 19 17 17 19
7 8 17 20 23 29 33 30 32 35 36 35 37 33 34 35 34 31 28 25 23 20 18 16 14 7 6 9 12 17 23 23 23 23 20 18 14 13 15 15 14 12 11
3 8 11 18 26 31 32 33 32 34 35 34 33 35 35 34 31 28 26 23 20 18 16 13 8 10 15 15 20 22 26 26 23 19 16 13 12 11 12 13 12 9 7
7 1 11 19 27 28 31 32 30 32 32 33 35 37 36 32 30 28 25 23 20 15 14 12 16 18 21 21 24 28 29 26 21 17 14 12 13 10 11 13 14 11 7
11 8 15 14 22 27 33 29 26 28 31 33 37 37 36 33 31 28 24 22 17 18 17 18 19 22 25 24 27 29 29 28 22 18 15 12 12 12 12 12 10 10 10
16 18 21 15 8 19 27 26 27 28 36 37 36 35 33 33 30 26 25 22 23 22 22 21 23 25 27 27 25 26 27 25 24 20 17 15 16 17 14 10 10 13 12
14 20 18 17 10 4 21 21 22 31 32 30 29 30 30 29 28 29 26 28 29 26 26 26 26 27 28 27 25 19 19 21 23 20 19 18 18 16 16 15 16 15 14
11 16 17 14 13 14 5 16 26 24 21 22 24 26 27 28 32 32 32 31 30 28 26 27 26 29 29 27 23 19 17 19 22 20 21 21 18 15 15 16 16 15 14
12 14 15 13 14 17 12 11 12 14 20 25 26 28 29 29 31 32 34 32 27 26 26 24 26 31 32 29 26 24 23 23 24 25 23 20 17 16 16 15 16 15 14
10 13 12 11 15 17 15 6 11 13 20 25 26 26 27 28 27 25 26 28 30 33 30 29 36 37 35 35 32 31 29 28 27 26 23 19 17 15 15 15 15 15 14
18 18 17 16 18 19 18 9 13 17 22 24 24 24 25 28 32 30 23 23 28 27 27 33 38 36 35 35 32 28 27 26 28 27 24 21 17 17 16 14 13 13 12
Wind_Direction
196 181 179 179 178 184 186 190 193 198 199 197 203 210 217 222 239 230 245 214 215 208 216 232 258 254 287 317 325 300 301 323 342 331 333 327 207 211 16 5 218 240 273
187 178 179 179 179 184 189 192 196 196 202 205 208 210 211 221 239 243 235 216 218 216 225 232 249 249 261 277 297 296 300 317 311 275 313 345 311 255 327 301 333 348 301
191 183 181 184 183 184 189 195 198 199 202 207 212 212 217 229 235 247 249 225 221 220 228 241 254 254 260 268 285 298 295 280 277 268 212 355 255 328 303 297 335 337 329
193 188 184 187 187 191 193 197 201 203 205 206 209 212 217 224 232 243 267 253 233 229 240 255 260 259 260 263 276 285 282 282 273 274 267 255 254 238 322 346 328 341 343
193 192 188 188 191 189 191 195 203 205 206 207 212 214 221 227 232 242 261 254 240 228 246 259 264 261 262 269 276 276 280 271 272 266 307 263 281 280 235 278 317 352 22
200 195 194 186 190 191 191 193 199 206 208 208 212 217 222 228 235 243 249 257 252 240 252 254 260 266 268 273 279 276 279 282 277 325 318 305 279 300 281 268 297 313 30
201 194 192 187 187 188 191 192 196 202 207 210 213 218 226 230 237 242 247 253 262 266 272 258 257 268 274 271 273 278 291 293 299 307 329 339 329 332 308 289 302 293 29
204 198 194 190 187 188 190 192 196 201 206 211 215 221 226 230 236 243 246 250 253 260 269 267 266 273 279 276 267 282 312 335 322 344 343 355 353 349 326 294 221 314 359
201 201 191 194 190 189 190 193 195 201 206 211 217 223 228 231 234 238 244 248 255 260 269 272 277 289 299 302 262 274 3 314 309 17 17 6 346 346 325 316 187 161 66
197 199 191 192 193 192 193 193 197 199 207 212 217 223 229 233 235 239 241 246 252 257 263 269 277 286 288 283 248 233 222 256 271 272 317 328 344 0 3 118 130 158 143
197 194 191 191 193 194 190 192 195 198 202 208 214 220 227 232 237 240 244 245 250 255 263 271 279 280 289 277 255 243 233 248 266 261 278 318 352 32 96 107 98 91 103
192 192 189 189 189 191 188 190 194 197 204 210 214 220 226 232 237 241 245 249 254 258 263 268 276 282 283 282 255 260 250 252 256 239 307 298 52 118 121 97 88 72 81
154 182 184 186 186 189 189 188 193 197 202 208 212 218 225 230 236 241 246 250 254 259 264 268 270 277 278 277 265 282 275 253 246 212 252 255 163 125 112 92 90 89 86
196 193 184 185 184 185 187 187 193 196 198 204 208 213 224 232 237 241 245 250 255 259 264 268 272 274 275 267 274 273 233 214 166 162 179 148 133 122 112 98 94 95 89
183 185 184 181 179 180 184 189 191 193 198 199 204 215 224 232 237 240 245 250 253 257 263 269 271 269 264 271 269 185 159 147 141 136 125 129 117 109 97 89 96 102 100
214 184 181 170 176 176 180 186 192 196 197 199 207 218 221 227 233 239 242 246 251 255 259 259 259 261 266 254 170 163 149 145 139 132 125 118 118 110 94 93 104 103 103
226 187 180 173 171 176 182 188 192 196 198 202 212 214 220 227 232 236 240 243 247 249 248 250 254 251 170 151 147 150 145 149 146 139 133 126 120 113 114 116 114 108 92
35 177 179 172 174 178 184 191 191 194 198 205 210 217 221 224 227 231 235 236 237 233 236 240 213 166 143 149 142 143 143 145 143 142 137 126 129 130 137 135 122 105 105
330 177 158 167 170 178 185 187 188 193 198 206 212 218 222 220 223 222 225 227 223 216 216 188 163 153 147 152 150 147 146 145 138 137 131 130 129 130 138 131 122 106 95
356 19 131 151 169 184 187 182 188 191 201 208 215 221 222 222 220 221 215 216 208 180 175 160 163 159 152 162 158 151 146 142 140 137 130 125 124 131 138 127 112 84 83
11 21 70 92 131 186 193 190 195 200 214 219 222 222 222 220 220 210 199 193 170 161 153 153 156 158 159 162 162 157 149 150 146 141 134 128 126 118 105 89 94 111 112
12 10 31 47 53 141 196 201 201 213 216 219 218 218 216 211 204 191 182 172 164 155 149 150 152 158 158 160 163 162 157 156 149 141 137 133 128 113 98 85 112 119 119
24 7 15 11 41 33 221 212 228 229 227 220 211 205 200 194 187 181 169 160 162 148 147 148 148 153 158 161 162 156 151 153 143 138 136 134 127 117 113 99 112 117 119
21 2 18 0 358 7 1 235 223 214 217 208 201 194 182 174 177 176 169 162 157 149 152 153 155 157 163 160 163 156 149 147 140 138 136 134 129 119 108 114 106 112 116
17 17 11 345 339 342 339 283 229 206 197 196 183 169 164 163 160 161 164 169 172 170 163 167 165 164 168 172 171 163 161 155 148 146 144 143 138 133 126 117 112 120 117
10 9 2 346 336 332 316 274 222 204 194 174 165 162 158 157 165 166 158 167 175 186 191 185 178 178 180 177 175 171 165 156 156 155 154 153 150 142 140 136 122 113 132